Wetbulb
55.19 54.51 54.42 54.09 54.81 57.61 61.15 65.65 66.55 66.26 65.69 64.22 62.72 62.74 63.42 63.13 62.06 62.60 63.59 63.08 63.30 63.41 62.57 61.87 62.53 63.61 63.39 63.05 62.48 62.99 62.51 62.83
51.98 52.85 52.15 52.53 52.51 54.32 55.88 56.38 56.35 59.20 57.65 57.54 55.04 53.55 58.02 58.68 59.67 60.03 57.51 58.58 60.29 60.13 59.88 60.00 59.90 61.39 61.68 61.73 61.59 60.73 60.34 61.36
50.75 49.50 49.50 50.23 50.71 51.29 52.52 52.84 52.53 52.56 52.97 51.96 51.39 51.81 52.99 56.71 53.43 53.19 53.77 55.83 57.64 57.65 55.99 56.41 56.87 59.46 57.27 57.55 57.53 56.55 57.72 59.29
49.36 49.02 48.24 47.70 48.64 50.19 50.81 50.48 50.75 50.68 50.56 50.16 49.58 49.54 49.39 49.59 50.01 50.50 51.42 52.46 53.24 53.14 53.20 54.19 55.61 56.37 57.49 58.88 55.83 55.77 54.33 54.87
48.99 48.07 46.66 47.17 47.66 48.39 48.56 49.29 48.06 48.62 48.79 47.57 47.40 46.87 45.90 47.50 48.35 49.58 49.79 51.35 52.04 52.38 52.35 52.83 53.80 54.54 54.51 53.59 55.39 53.57 53.50 52.90
47.22 47.55 47.90 47.72 47.10 45.65 45.74 46.38 46.37 46.13 46.21 46.39 45.26 44.50 45.59 47.14 47.45 47.09 47.71 49.76 51.16 51.90 51.95 51.79 52.00 52.08 51.43 51.20 51.42 51.35 51.59 51.84
47.13 47.01 46.79 45.40 44.71 44.46 44.19 44.74 44.75 44.93 44.61 44.45 44.23 44.11 44.73 45.32 45.51 46.62 47.98 49.21 50.46 50.61 50.56 49.53 49.68 49.31 49.38 49.46 49.36 49.19 49.53 49.64
45.09 45.26 44.65 43.80 43.20 42.65 43.21 44.09 43.90 44.16 43.74 43.95 43.79 45.14 45.68 45.50 45.92 46.36 46.88 47.91 48.63 48.29 47.56 47.41 47.37 47.63 47.96 48.33 48.13 47.92 47.60 46.93
45.56 44.78 43.67 42.99 42.65 42.94 43.00 43.78 43.32 43.12 43.55 42.99 42.86 45.14 45.26 46.32 46.58 45.61 46.49 47.97 48.02 47.32 46.47 46.26 46.26 45.68 46.75 46.76 46.33 45.89 46.16 45.15
44.06 43.67 43.05 41.58 41.75 41.73 42.18 41.64 41.81 42.70 42.56 41.54 42.34 43.14 42.88 43.80 43.11 44.08 45.98 46.99 47.80 46.58 45.64 44.67 44.82 44.44 44.78 45.08 44.09 42.66 43.15 43.58
42.28 41.52 40.08 40.16 40.66 40.27 39.69 40.17 40.54 40.90 41.22 40.80 41.22 40.68 41.27 41.78 42.33 42.41 42.86 43.58 44.54 44.67 44.30 44.04 43.84 43.20 42.95 43.38 42.45 42.05 41.89 41.61
40.03 39.91 39.47 39.43 38.70 38.35 38.36 38.65 38.70 37.83 38.46 39.27 39.42 39.61 40.32 40.06 40.22 40.42 40.67 41.63 42.71 43.54 44.21 44.15 43.85 43.58 43.05 41.71 41.71 41.72 41.03 40.66
39.09 37.94 38.26 37.69 37.47 37.06 37.09 37.26 37.91 38.15 38.93 39.13 38.92 38.92 38.99 38.45 38.73 39.45 40.50 40.32 41.33 41.75 42.80 43.06 43.49 43.42 42.79 41.24 41.54 42.58 40.87 40.95
36.58 36.82 37.54 36.90 36.55 36.90 37.00 37.72 37.82 38.61 39.18 38.61 38.69 38.51 38.69 38.26 38.62 39.40 40.26 40.40 40.69 40.71 41.27 41.06 41.30 41.12 40.80 40.69 41.24 41.70 41.13 41.02
36.82 36.04 35.50 36.47 37.33 37.75 37.90 38.12 38.79 38.91 39.17 38.49 37.95 38.12 38.71 38.63 39.11 39.40 39.65 40.41 40.34 40.69 41.18 41.30 41.29 40.99 41.01 40.76 40.50 40.08 39.88 40.65
35.19 34.58 35.87 36.95 36.92 37.17 37.69 38.20 38.55 38.80 38.29 37.84 37.86 38.56 39.00 38.96 38.60 38.39 38.91 39.39 40.56 40.69 40.51 40.43 40.26 40.46 41.77 39.54 39.31 38.32 38.14 39.14
35.46 36.48 36.80 36.79 36.96 37.01 38.39 37.64 38.47 38.15 37.53 37.80 38.66 38.46 38.52 37.87 37.38 37.86 38.21 38.96 38.93 39.56 39.02 39.17 38.94 40.49 39.88 39.71 37.55 37.48 38.27 38.69
36.54 37.22 36.72 37.31 37.69 37.98 36.22 37.01 38.02 37.60 37.11 37.80 37.75 37.23 36.67 37.02 37.56 37.42 36.76 36.62 37.87 37.41 37.50 37.77 38.05 38.11 39.00 39.14 38.85 36.97 34.89 35.72
36.48 36.62 36.68 36.74 36.81 36.46 37.27 37.46 36.65 36.58 36.21 35.90 36.58 36.30 36.27 36.73 36.04 35.84 36.05 36.85 35.88 36.05 36.27 36.20 36.42 36.99 37.32 37.21 36.84 35.79 35.66 35.04
MSLP
1012.79 1012.69 1012.57 1012.50 1012.76 1012.94 1013.12 1013.45 1013.97 1014.44 1014.83 1015.26 1015.72 1015.99 1016.05 1016.13 1016.20 1016.19 1016.16 1016.25 1016.29 1016.30 1016.40 1016.47 1016.51 1016.56 1016.57 1016.60 1016.65 1016.44 1016.12 1015.84
1013.23 1013.09 1013.07 1013.00 1013.32 1013.53 1013.69 1014.00 1014.33 1014.62 1015.28 1015.76 1016.11 1016.55 1016.62 1016.70 1016.63 1016.64 1016.60 1016.45 1016.33 1016.40 1016.40 1016.41 1016.44 1016.68 1016.77 1016.72 1016.58 1016.51 1016.30 1016.08
1013.58 1013.61 1013.56 1013.59 1013.90 1014.19 1014.37 1014.73 1014.94 1015.10 1015.43 1015.92 1016.24 1016.57 1016.81 1016.95 1016.99 1016.84 1016.97 1016.93 1016.81 1016.77 1016.79 1016.74 1016.66 1016.71 1016.61 1016.64 1016.56 1016.38 1016.29 1016.09
1013.42 1013.75 1013.88 1013.97 1014.36 1014.66 1014.89 1015.31 1015.51 1015.68 1015.83 1016.15 1016.58 1016.90 1017.13 1017.37 1017.36 1017.41 1017.34 1017.13 1017.06 1017.05 1016.95 1016.76 1016.69 1016.68 1016.53 1016.49 1016.46 1016.32 1016.18 1016.06
1013.30 1013.71 1014.13 1014.36 1014.66 1014.98 1015.20 1015.58 1015.80 1016.02 1016.13 1016.53 1017.10 1017.62 1018.00 1018.06 1018.01 1017.85 1017.60 1017.35 1017.30 1017.23 1017.16 1016.92 1016.79 1016.91 1016.93 1016.95 1016.88 1016.71 1016.48 1016.40
1013.11 1013.46 1013.85 1014.41 1014.97 1015.23 1015.40 1015.82 1016.20 1016.50 1016.46 1016.71 1017.35 1017.87 1018.21 1018.07 1018.00 1018.02 1017.89 1017.62 1017.40 1017.21 1017.22 1017.05 1017.08 1017.11 1017.06 1017.01 1016.86 1016.76 1016.64 1016.76
1013.34 1013.84 1014.15 1014.61 1015.02 1015.41 1015.71 1016.01 1016.40 1016.49 1016.62 1017.03 1017.39 1017.80 1018.13 1018.29 1018.21 1018.12 1017.95 1017.90 1017.67 1017.43 1017.19 1017.05 1017.01 1017.04 1016.97 1016.84 1016.83 1016.69 1016.67 1016.39
1013.09 1013.76 1014.38 1014.80 1015.25 1015.53 1015.81 1016.06 1016.59 1016.79 1016.92 1017.12 1017.36 1017.63 1017.68 1018.12 1018.29 1018.41 1018.45 1018.16 1017.84 1017.65 1017.46 1017.27 1017.11 1016.81 1016.61 1016.57 1016.56 1016.50 1016.44 1016.20
1013.01 1013.44 1014.08 1014.64 1015.09 1015.47 1015.91 1016.39 1016.75 1016.88 1016.99 1017.27 1017.41 1017.55 1017.73 1018.06 1018.13 1018.16 1018.12 1018.06 1017.82 1017.38 1017.25 1016.94 1016.70 1016.61 1016.52 1016.32 1016.24 1016.13 1015.97 1015.86
1012.66 1013.42 1014.05 1014.75 1015.32 1015.78 1016.18 1016.57 1016.87 1016.92 1016.97 1017.08 1017.22 1017.41 1017.58 1017.79 1017.87 1017.98 1017.95 1017.80 1017.55 1017.33 1017.12 1016.96 1016.58 1016.31 1016.19 1015.93 1015.75 1015.76 1015.62 1015.55
1012.89 1013.66 1014.31 1014.88 1015.36 1015.90 1016.40 1016.68 1016.80 1016.89 1017.07 1017.25 1017.35 1017.44 1017.65 1017.79 1017.80 1017.68 1017.58 1017.47 1017.34 1017.26 1017.14 1016.93 1016.56 1016.21 1015.98 1015.66 1015.44 1015.09 1015.09 1014.92
1012.80 1013.71 1014.45 1015.05 1015.58 1016.04 1016.37 1016.51 1016.69 1016.99 1017.14 1017.16 1017.21 1017.48 1017.62 1017.79 1018.00 1018.06 1018.01 1017.80 1017.56 1017.28 1016.86 1016.54 1016.35 1016.01 1015.58 1015.43 1015.19 1014.96 1014.74 1014.29
1013.16 1013.94 1014.57 1015.24 1015.75 1016.17 1016.35 1016.50 1016.60 1016.85 1016.99 1017.38 1017.73 1017.96 1018.10 1018.10 1018.04 1017.93 1017.76 1017.55 1017.31 1017.04 1016.87 1016.57 1016.14 1015.80 1015.42 1015.14 1014.75 1014.21 1014.31 1014.06
1013.32 1014.23 1014.83 1015.38 1015.99 1016.35 1016.59 1016.78 1017.09 1017.21 1017.43 1017.64 1017.88 1018.07 1018.01 1018.04 1017.93 1017.73 1017.56 1017.39 1017.17 1016.98 1016.74 1016.43 1016.11 1015.56 1015.00 1014.55 1014.35 1013.95 1013.60 1013.26
1013.17 1014.22 1014.98 1015.46 1015.83 1016.20 1016.53 1016.86 1017.02 1017.30 1017.39 1017.69 1017.92 1017.81 1017.92 1018.01 1017.93 1017.79 1017.63 1017.47 1017.19 1016.89 1016.66 1016.32 1015.85 1015.37 1014.72 1014.44 1014.00 1013.60 1013.43 1013.32
1013.21 1014.01 1014.83 1015.42 1015.83 1016.09 1016.32 1016.64 1017.00 1017.10 1017.42 1017.65 1017.84 1018.01 1018.07 1018.12 1018.15 1017.98 1017.72 1017.33 1017.00 1016.80 1016.38 1015.98 1015.67 1015.29 1014.78 1014.35 1013.99 1013.47 1012.97 1012.76
1013.29 1013.95 1014.51 1015.04 1015.48 1015.94 1016.44 1016.86 1017.01 1017.14 1017.56 1017.89 1018.04 1018.15 1018.26 1018.41 1018.31 1017.93 1017.49 1017.28 1017.01 1016.59 1016.16 1015.67 1015.44 1015.27 1014.81 1014.38 1013.97 1013.68 1013.29 1012.90
1013.10 1013.96 1014.52 1014.96 1015.44 1016.03 1016.67 1017.04 1017.27 1017.50 1017.75 1018.14 1018.33 1018.36 1018.42 1018.22 1017.94 1017.65 1017.46 1017.16 1016.65 1016.32 1016.08 1015.91 1015.43 1015.06 1014.50 1014.17 1013.81 1013.44 1013.10 1012.74
1012.94 1013.75 1014.61 1015.22 1015.74 1016.29 1016.87 1017.32 1017.44 1017.53 1018.08 1018.54 1018.57 1018.39 1018.02 1017.63 1017.49 1017.36 1017.23 1016.91 1016.64 1016.49 1016.03 1015.78 1015.30 1014.70 1014.19 1013.82 1013.32 1013.01 1012.63 1012.21
Wind_Speed
7 7 7 7 7 7 8 7 9 7 5 5 4 3 3 3 4 4 6 4 5 3 3 3 3 2 3 3 4 4 5 7
6 6 7 9 8 9 8 9 6 6 3 4 3 3 2 3 4 5 6 6 7 6 4 5 4 3 4 4 3 5 5 3
8 6 6 7 8 8 9 8 7 6 4 3 3 3 2 2 3 5 7 7 6 4 4 4 3 2 3 4 4 2 2 3
11 10 9 8 8 8 8 7 7 6 6 4 3 3 3 3 4 3 5 6 6 7 7 5 5 2 2 4 3 4 4 2
12 11 7 9 7 7 8 8 8 7 8 7 7 3 2 1 2 3 5 6 7 6 6 6 5 4 5 4 4 3 3 5
14 12 11 8 7 7 8 8 8 7 8 8 6 4 1 1 2 5 5 5 5 6 5 5 5 4 4 5 5 4 2 2
10 7 8 7 7 7 7 8 6 7 8 7 7 5 2 3 3 4 4 3 3 3 4 4 3 3 3 3 4 4 4 3
12 12 10 8 8 8 7 8 6 6 7 7 6 4 4 2 2 1 4 3 2 3 3 3 1 2 3 3 3 4 3 3
14 12 10 10 9 8 8 7 6 5 6 6 5 5 3 1 1 2 3 2 3 3 5 5 5 5 4 3 2 3 4 4
15 11 10 8 8 8 9 8 6 6 5 4 4 3 2 2 4 3 3 4 4 6 6 7 7 6 6 5 4 5 4 4
12 11 9 7 7 7 7 7 7 5 5 4 3 4 4 3 3 6 6 6 5 7 7 7 7 7 7 6 5 6 6 5
14 10 7 8 7 7 7 6 6 5 4 4 6 6 7 6 5 6 6 6 7 7 7 7 8 9 8 6 8 8 8 7
10 9 9 8 7 6 6 5 7 6 6 5 5 5 5 5 6 6 6 6 6 7 7 7 8 9 9 8 11 10 7 8
8 8 9 8 7 7 7 6 6 6 5 6 6 5 5 5 5 4 5 6 6 6 5 6 7 7 8 7 7 9 8 8
11 9 7 8 7 7 7 6 6 5 6 6 4 5 4 4 5 6 6 6 6 6 6 6 6 7 6 6 6 6 6 6
13 12 10 9 8 7 7 7 6 5 5 5 6 6 6 6 6 6 6 6 5 5 8 6 6 6 5 6 5 4 4 7
12 12 11 8 8 8 7 6 5 5 6 6 5 5 5 5 6 6 6 7 7 8 8 8 8 6 10 11 7 6 8 7
13 11 9 9 9 8 6 6 5 6 6 5 4 4 4 4 7 8 9 9 7 8 8 6 8 8 11 11 12 7 6 7
12 11 10 9 7 7 7 5 5 6 6 3 3 4 4 6 6 7 8 8 8 8 7 7 8 8 13 15 14 9 8 9
Wind_Direction
152 127 105 94 83 90 103 115 116 114 105 91 89 97 78 50 31 29 24 22 23 25 1 344 331 290 289 287 282 263 260 268
143 120 107 94 68 89 95 102 90 103 87 103 65 60 21 41 35 41 29 14 20 14 4 356 358 355 335 314 289 312 324 307
142 132 104 85 98 87 87 91 95 88 90 84 91 101 66 61 6 20 23 12 16 17 360 333 332 336 344 351 325 309 285 324
150 138 127 119 108 111 102 96 92 89 101 103 76 53 35 22 5 3 349 358 355 358 350 344 331 333 309 315 302 320 306 304
151 143 131 127 127 114 104 99 91 75 75 76 79 94 63 341 312 328 342 5 4 8 360 3 5 0 359 352 340 329 334 314
157 151 143 134 128 119 111 101 89 89 81 85 86 69 50 287 330 345 355 344 11 14 26 33 30 17 344 326 326 330 274 287
153 144 124 121 123 120 119 112 104 99 94 91 96 97 61 18 349 357 354 340 341 3 21 35 33 12 340 312 302 302 302 273
152 147 143 138 134 136 129 118 107 106 103 92 77 74 69 27 351 326 312 310 309 331 352 343 307 277 296 306 318 319 304 252
161 156 150 151 149 140 121 114 112 98 86 68 48 59 52 31 265 273 269 268 265 250 264 244 249 258 257 248 236 248 248 260
162 153 149 144 142 139 136 127 112 100 100 92 75 95 67 343 314 264 269 257 256 257 256 270 270 269 259 247 238 257 240 254
148 151 152 148 137 137 134 137 132 127 118 89 67 29 11 339 338 332 321 315 303 304 295 289 287 279 273 255 249 247 239 248
154 155 153 144 138 147 145 123 102 75 65 51 36 11 5 355 339 323 320 311 309 293 284 286 288 286 280 268 260 264 241 246
145 144 143 143 141 128 115 97 86 65 53 45 30 16 1 4 356 352 349 342 329 326 319 306 302 298 287 275 275 269 243 249
140 136 149 142 138 131 118 100 93 85 84 66 52 41 34 29 18 357 351 348 335 327 332 318 306 296 290 289 273 272 252 244
151 145 140 138 133 129 122 104 92 88 81 81 72 43 29 16 353 347 334 313 304 317 308 295 301 307 308 304 296 282 296 295
151 144 143 138 136 120 99 89 86 93 78 63 51 31 12 357 340 316 297 303 311 297 307 306 301 302 304 326 329 338 356 328
143 142 137 132 116 103 98 106 97 82 72 59 34 18 354 325 308 307 324 325 319 319 323 314 315 309 301 301 314 309 296 291
141 132 118 111 115 125 122 102 89 83 65 46 21 348 315 318 343 333 328 322 322 326 313 305 314 309 306 303 295 294 286 285
131 125 123 125 126 110 106 100 87 76 54 4 325 313 321 334 330 327 327 322 326 313 297 298 303 297 298 301 294 284 269 259